User: anonymous   Login
Location: *
(49.8044°N, 4.0558°E)
Time: 02:04:01
(UTC+00:00)
Language:

Cosmos 2061 Rocket - Orbit

View from above orbital plane
View from above orbital plane
View from above satellite
View from above satellite

Ground track
Ground track

The orbit data is extracted from the following two-line orbital elements,

1 20528U 90023B   20192.43234919 -.00000002 +00000-0 -18255-4 0  9999
2 20528 082.9363 316.4557 0032540 153.0535 268.8190 13.72866485518331
Epoch (UTC): 10 July 2020 10:22:34
Eccentricity: 0.0032540
inclination: 82.9363°
perigee height: 965 km
apogee height: 1013 km
right ascension of ascending node: 316.4557°
argument of perigee: 153.0535°
revolutions per day: 13.72866485
mean anomaly at epoch: 268.8190°
orbit number at epoch: 51833

The dashed part of the orbit path shows where the satellite is in the earth's shadow,  

DLR